Location: Cactus School
(34.5700°N, 118.0931°W)
Time: 10:24:40
(UTC-08:00)

S-56A Canister/Altair - Visible Passes

Search period start: 15 November 2019 00:00
Search period end: 25 November 2019 00:00
Orbit: 634 x 2498 km, 38.9° (Epoch: 13 November)

Date Brightness Start Highest point End Pass type
(mag) Time Alt. Az. Time Alt. Az. Time Alt. Az.
15 Nov 8.6 17:21:52 10° SW 17:31:25 69° SSE 17:37:06 13° ENE visible
15 Nov 8.6 19:28:36 10° W 19:34:31 50° WNW 19:34:31 50° WNW visible
16 Nov 8.0 18:55:08 10° W 19:03:04 65° NNW 19:03:38 62° NNE visible
17 Nov 8.3 18:21:34 10° W 18:30:18 70° NNW 18:32:44 39° ENE visible
17 Nov 10.3 20:28:27 10° WNW 20:30:10 18° WNW 20:30:10 18° WNW visible
18 Nov 8.5 17:47:56 10° WSW 17:57:28 76° NNW 18:01:50 22° ENE visible
18 Nov 9.4 19:55:10 10° WNW 19:59:16 32° WNW 19:59:16 32° WNW visible
19 Nov 8.7 17:14:13 10° WSW 17:24:35 81° NNW 17:30:56 12° ENE visible
19 Nov 8.5 19:21:46 10° WNW 19:28:21 53° NW 19:28:21 53° NW visible
20 Nov 8.1 18:48:14 10° W 18:56:37 61° N 18:57:27 56° NNE visible
20 Nov 10.8 20:54:40 10° WNW 20:54:53 11° WNW 20:54:53 11° WNW visible
21 Nov 8.5 18:14:35 10° W 18:23:47 63° N 18:26:34 36° ENE visible
21 Nov 10.1 20:21:27 10° WNW 20:24:00 22° WNW 20:24:00 22° WNW visible
22 Nov 8.7 17:40:51 10° W 17:50:52 65° N 17:55:41 20° ENE visible
22 Nov 9.2 19:48:07 10° WNW 19:53:07 40° WNW 19:53:07 40° WNW visible
23 Nov 8.9 17:07:02 10° W 17:17:53 68° N 17:24:50 10° ENE visible
23 Nov 8.2 19:14:41 10° WNW 19:22:16 68° NW 19:22:16 68° NW visible
24 Nov 8.1 18:41:09 10° WNW 18:50:11 72° N 18:51:26 59° ENE visible
24 Nov 10.6 20:47:44 10° WNW 20:48:52 14° WNW 20:48:52 14° WNW visible
